Location: Misciano
(43.5000°N, 11.9500°E)
Time: 16:23:43
(UTC+00:00)

Cosmos 2082 Rocket - Pass Details

Date: 13 August 2020
Orbit: 835 x 852 km, 71.0° (Epoch: 18 September)

Event Time Altitude Azimuth Distance (km) Brightness Sun altitude
Rises 18:48:09 0° 187° (S) 3,399 5.1 -5.8°
Reaches altitude 10° 18:50:39 10° 182° (S) 2,466 4.4 -6.2°
Maximum altitude 18:56:06 50° 108° (ESE) 1,066 2.4 -7.1°
Drops below altitude 10° 19:01:33 10° 35° (NE) 2,471 4.6 -8.0°
Sets 19:04:03 0° 30° (NNE) 3,408 5.4 -8.4°
